Weather in Riomaggiore

Italy     44°05′45″N   9°44′36″E
temp.,
°C
wind,
m/s
gust,
m/s
humid.,
%
clouds,
%
prec.,
mm/h
press.,
hPa
HPBL,
m
21 april, wed
wed2123:00+13wsw22701 0.1 1018541
02:00+13ene217115 0.1 1018296
05:00+13ese2370100 0.0 1018674
08:00+12ese4478100 0.0 1018480
11:00+12se4575100 0.1 1019436
14:00+13sse5672100 0.1 1019567
17:00+14se5668100 0.0 1018730
20:00+14se5570100 0.0 1018782
22 april, thu
thu2223:00+14ese4569100 0.0 1019785
02:00+13ene447594 0.1 1019406
05:00+13e347192 0.1 1018318
08:00+13e33715 0.1 1019465
11:00+13s11680 0.0 1019223
14:00+13wsw32650 0.0 1019260
17:00+14w33635 0.0 1018263
20:00+14wnw11625 0.0 1018173
23 april, fri
fri2323:00+14nw11645 0.0 1019184
02:00+13nne22725 0.0 1019145
05:00+13ne21720 0.0 1019155
08:00+13ne33700 0.0 1019168
11:00+14wsw11640 0.0 1020104
14:00+16wnw22635 0.0 1019184
17:00+16wsw236614 0.0 1018115
20:00+16nnw22705 0.0 101818
24 april, sat
sat2423:00+15nne67770 0.0 1019147
02:00+14nne67730 0.0 1020176
05:00+13nne66700 0.0 1020170
08:00+13nne55680 0.0 1021176
11:00+15wsw00640 0.0 102140
14:00+16wsw43650 0.0 1020156
17:00+16w22630 0.0 1019159
20:00+16nw22665 0.0 101935
25 april, sun
sun2523:00+15n33721 0.0 102058
02:00+14nne33710 0.0 1019101
05:00+14e22685 0.0 1019164
08:00+14e227189 0.0 1018183
11:00+14s22705 0.0 1019159
14:00+15sw226877 0.0 1019162
17:00+16sw3366100 0.0 1018200
20:00+15n2271100 0.0 101782